Wind_Speed
14 14 13 13 12 12 11 10 10 9 8 9 9 9 8 7 7 7 7 7 7 7 6 6 7 7 8 8 8 9 9 9 10 11 11 10 10 11 12 12 13 14 14 15 14 14 14 13 13 12 12 13 12 13 14 14 13 10 9 11 12 10 8 7 6 8 9 5 4 7 9 9 8 12 13 14 20 25 24 20 19 17 15 14 12 11 10 12
14 13 13 13 13 12 11 10 9 8 8 8 8 8 8 7 7 7 7 6 6 6 6 5 5 5 6 6 7 7 8 9 9 10 9 9 9 9 10 11 12 13 13 13 13 14 13 13 13 12 12 12 12 13 12 13 13 10 9 11 11 9 9 11 10 10 9 7 6 6 8 7 7 9 9 12 17 23 26 22 19 18 17 14 13 11 9 11
13 13 13 13 12 11 10 9 8 7 7 7 7 7 7 7 6 6 6 6 6 5 5 4 4 4 4 5 5 6 6 7 7 8 8 8 8 9 9 9 11 11 11 11 12 13 13 14 13 12 12 11 13 13 12 13 12 12 12 11 10 10 12 12 11 10 8 7 5 6 6 6 6 6 6 10 15 20 23 22 20 20 19 16 15 12 9 10
12 12 12 12 11 10 9 9 8 7 6 6 6 6 6 6 6 6 6 5 5 4 4 4 3 3 3 4 4 4 4 4 5 6 7 7 8 9 8 8 9 8 8 10 11 13 13 14 13 13 12 10 14 14 12 13 12 12 14 11 9 12 12 8 8 9 9 8 4 4 5 7 5 4 5 9 14 17 18 19 20 20 19 17 15 12 9 10
11 11 10 10 9 9 8 7 7 6 6 6 5 5 5 5 5 5 5 5 4 4 4 3 3 3 2 2 2 2 1 0 4 5 5 6 7 8 8 7 7 6 7 9 10 12 12 13 13 12 12 10 13 12 11 15 14 13 13 12 12 12 9 7 7 9 11 8 4 5 6 6 2 3 4 9 11 13 17 21 21 17 15 12 12 11 10 11
8 8 8 7 7 7 7 7 6 6 5 5 4 4 5 5 5 5 5 5 4 4 3 3 2 1 1 1 1 1 4 2 2 3 3 4 5 6 7 7 6 6 7 9 10 11 12 12 11 10 10 10 11 10 11 15 14 11 10 12 13 11 10 9 7 8 11 8 4 5 5 3 3 4 3 9 11 13 18 21 17 13 12 11 10 10 10 11
6 6 5 5 5 5 6 6 6 6 5 4 4 4 4 4 4 4 4 4 4 3 2 2 1 1 1 2 3 3 5 4 1 3 4 3 4 5 7 7 7 7 7 8 9 10 11 11 9 9 9 9 11 10 11 12 12 11 10 10 10 11 11 8 7 8 10 7 4 2 1 2 5 2 4 7 10 11 14 16 14 13 12 11 10 10 10 11
4 4 4 4 4 5 5 6 6 5 5 4 3 3 3 4 4 4 4 4 3 2 1 1 1 2 3 4 5 5 4 3 3 3 3 4 4 6 7 7 8 7 8 8 9 10 10 9 9 10 8 8 11 10 10 9 9 11 10 9 9 9 8 6 7 9 9 6 3 1 1 3 5 4 7 7 9 12 13 15 15 13 12 11 11 12 11 11
3 3 3 3 4 5 5 6 5 5 4 4 3 3 3 3 3 4 3 3 3 2 1 2 3 4 6 6 7 6 3 4 4 4 4 4 6 7 8 8 8 8 8 9 10 11 10 9 10 11 9 9 10 8 9 7 7 11 9 8 8 7 7 7 8 9 8 6 4 3 2 3 6 7 7 7 10 12 12 14 14 13 13 13 13 14 13 12
3 3 3 3 4 5 5 5 5 4 4 4 3 2 2 2 3 3 3 2 2 1 1 3 4 6 7 8 8 4 3 6 7 7 6 5 6 8 9 9 10 10 11 11 12 12 11 9 10 11 9 9 8 7 9 7 7 8 7 6 7 6 6 6 8 8 7 6 6 5 3 4 8 8 4 6 11 11 10 11 13 14 13 14 14 15 14 13
4 2 3 4 5 5 5 5 5 4 4 4 3 2 2 2 2 2 2 2 2 1 1 4 6 8 8 8 7 3 4 7 7 9 7 5 7 8 10 11 12 13 13 12 12 12 11 8 9 9 5 6 6 6 8 8 9 6 3 4 4 5 4 5 8 8 7 6 8 8 4 5 8 7 5 8 10 9 8 9 12 14 13 13 13 14 15 15
5 4 2 4 5 7 7 6 5 4 4 4 3 3 2 2 1 1 2 2 1 1 2 6 8 9 8 7 6 5 7 8 8 9 8 7 8 9 10 11 13 15 15 13 10 11 11 9 10 9 6 6 5 5 6 7 8 5 3 3 4 4 4 5 8 8 7 7 9 9 6 7 6 4 7 8 9 9 9 9 11 13 13 12 14 15 16 17
6 5 4 2 3 5 7 7 6 6 5 4 4 3 3 2 2 1 1 1 1 1 4 8 10 9 8 7 6 7 8 8 9 10 9 9 10 10 10 11 12 14 15 13 11 9 10 10 9 8 9 8 5 6 7 5 5 5 3 3 5 7 7 7 8 8 8 8 10 10 10 10 7 5 6 6 7 9 9 10 10 12 12 13 15 16 17 18
6 6 5 4 3 2 4 5 6 7 6 5 4 4 4 3 2 2 1 0 1 2 5 10 11 9 8 7 7 7 8 9 9 9 10 10 11 12 12 12 13 13 13 13 11 8 8 9 8 7 8 8 5 6 4 3 4 4 4 4 6 8 8 9 10 9 7 9 11 9 10 9 6 6 5 4 5 7 10 12 11 11 13 14 16 17 18 20
5 5 5 4 4 3 3 2 3 5 6 6 6 5 5 4 3 3 2 1 2 4 7 10 11 8 7 7 7 7 7 8 9 9 10 11 11 12 12 11 12 11 10 10 10 9 7 7 7 6 5 5 6 4 3 4 5 5 6 6 8 8 8 10 12 11 9 8 10 9 11 7 6 7 5 4 3 5 9 12 12 13 14 16 18 18 18 20
5 5 5 4 4 4 3 3 2 1 3 5 6 7 7 6 5 4 3 3 3 5 9 10 9 8 7 6 7 7 7 8 8 9 9 10 11 11 11 10 9 8 7 7 7 7 6 6 6 4 3 4 4 4 4 6 6 7 7 4 7 8 6 10 11 11 9 7 7 9 11 6 5 7 6 4 4 5 7 10 12 12 14 17 19 19 18 20
4 4 4 4 4 4 3 3 3 1 0 2 4 7 8 8 7 5 5 4 4 7 9 10 10 8 6 7 8 7 7 8 8 8 9 9 9 10 9 9 9 8 6 5 4 4 4 5 5 3 3 3 4 6 6 7 7 8 6 4 6 6 5 8 9 8 8 6 6 7 9 6 3 7 8 6 6 6 6 8 11 13 14 17 19 19 19 19
4 4 4 4 4 4 3 2 2 1 1 1 2 3 4 6 8 8 7 6 6 8 8 10 10 7 6 8 9 8 8 8 7 8 8 8 8 8 8 8 8 7 5 3 3 3 3 4 3 3 4 4 4 6 7 5 4 6 7 5 6 6 6 5 6 6 6 5 5 6 9 7 3 6 9 7 8 8 9 9 11 14 14 16 18 18 18 19
5 5 5 5 5 4 3 2 1 0 1 1 1 0 1 2 5 8 10 8 8 9 8 10 12 8 7 9 9 8 8 7 7 7 7 8 7 7 7 7 7 6 4 3 5 5 3 3 4 5 5 4 4 5 5 3 2 4 5 5 6 7 8 5 3 5 6 5 6 5 7 6 3 5 9 9 8 10 12 12 12 13 14 14 16 18 18 19
6 6 6 6 6 5 3 3 2 1 1 0 1 1 1 1 1 4 9 11 10 11 10 11 13 10 10 10 8 8 7 5 6 6 7 8 7 7 6 6 6 5 5 5 7 6 4 4 6 5 4 4 6 7 6 6 6 6 6 7 7 7 7 5 4 6 6 6 6 5 5 5 4 4 7 11 10 11 13 15 14 12 12 11 13 16 19 20
6 6 6 7 7 6 4 3 2 2 1 1 2 4 3 3 2 3 7 11 13 12 10 12 13 11 11 11 9 8 7 6 6 5 7 7 7 6 6 6 5 6 8 8 7 6 4 5 6 6 6 7 7 7 7 7 7 8 8 8 9 9 7 5 4 5 5 7 7 5 6 7 6 4 6 9 10 12 14 16 17 14 12 10 10 14 19 21
6 6 6 6 6 6 5 4 3 2 2 3 4 5 5 4 1 2 4 9 13 13 10 11 13 10 10 11 9 8 7 7 6 6 7 7 7 7 6 6 5 7 9 8 7 6 6 6 7 8 7 6 5 6 6 5 6 8 8 9 10 9 8 5 5 6 5 7 7 5 7 9 7 7 7 6 8 12 15 17 18 16 14 13 10 12 18 22
5 5 5 5 5 5 5 5 4 3 3 4 4 4 5 4 3 1 4 8 11 13 11 11 13 10 11 11 9 8 7 6 6 7 8 7 7 9 7 6 5 6 8 8 7 7 6 5 6 8 6 4 3 4 5 5 6 7 9 10 9 7 8 8 6 6 5 6 7 5 8 11 10 10 10 9 7 9 14 18 20 18 15 14 12 12 14 18
5 5 5 4 4 4 4 4 3 2 2 3 3 3 4 4 4 3 7 10 10 12 11 12 13 11 11 10 8 9 7 7 7 7 9 8 7 8 7 6 6 5 6 7 7 7 4 3 5 8 7 5 4 3 5 7 7 8 9 11 9 5 8 7 3 3 5 6 8 8 11 14 13 11 11 11 9 7 11 16 18 18 16 14 14 14 14 15
5 5 5 4 4 4 4 3 2 2 2 2 2 2 3 4 4 5 9 10 8 10 11 12 12 10 10 9 8 9 7 7 8 8 9 10 8 7 7 7 6 4 6 6 6 6 5 4 6 9 7 5 6 5 6 8 8 8 10 11 10 7 7 7 4 4 8 9 6 5 10 9 8 9 10 9 8 7 9 12 15 17 17 17 16 16 16 17
5 5 5 5 5 4 4 4 2 2 2 1 1 2 2 3 3 6 10 8 7 10 9 10 10 9 9 8 8 9 6 6 8 8 10 10 8 8 7 6 5 5 6 5 4 5 6 5 5 8 7 5 6 7 7 8 8 9 9 9 10 9 8 7 6 7 10 8 3 2 7 6 5 8 9 8 8 8 9 10 13 14 14 16 17 18 19 19
6 5 5 5 5 5 5 4 4 3 3 2 1 1 1 1 2 6 7 6 7 8 8 8 8 9 9 8 9 8 5 6 6 7 10 9 7 7 6 5 4 4 4 3 4 4 4 4 4 6 7 6 8 8 7 8 9 8 6 7 9 10 9 8 7 9 9 7 6 6 7 9 10 9 8 7 8 9 10 9 11 14 14 14 16 17 19 21
6 5 5 6 6 6 5 5 5 4 4 3 3 2 1 1 2 7 5 2 6 8 8 9 7 9 10 8 8 6 6 7 5 6 9 7 5 6 5 5 5 3 2 3 2 1 0 3 3 5 7 9 9 7 5 8 9 8 5 8 9 9 9 8 8 9 6 6 11 9 7 8 12 10 7 7 9 10 9 8 9 15 16 16 17 17 19 21
7 6 6 6 6 6 6 6 6 6 5 4 4 4 3 2 4 6 4 2 5 8 9 8 6 7 8 7 6 6 8 8 5 7 8 5 5 6 5 5 5 4 4 4 3 3 5 4 4 5 8 10 9 8 6 7 10 9 8 9 9 9 8 8 8 10 6 7 12 8 6 7 10 10 9 6 7 9 6 5 7 10 11 12 13 14 15 17
7 7 6 6 6 6 6 6 7 7 6 6 5 5 5 4 5 6 5 4 7 8 9 8 7 6 7 6 5 5 7 7 5 6 5 3 4 4 4 5 5 5 6 6 5 6 6 4 4 5 7 10 12 11 8 8 10 11 10 9 9 9 8 8 8 9 7 9 9 6 6 6 8 9 9 5 6 8 6 4 7 8 6 6 7 8 9 12
8 8 7 6 6 6 6 7 7 7 7 7 6 5 5 4 6 6 5 6 8 8 9 8 6 6 7 8 6 5 6 5 5 5 3 3 3 3 3 4 4 5 7 7 6 6 6 6 7 6 5 9 12 12 9 8 9 10 10 9 10 9 8 10 10 8 8 7 4 5 6 7 9 8 6 5 8 8 6 6 7 6 4 4 5 5 8 10
9 9 8 7 6 6 6 6 7 7 7 7 6 6 5 5 8 7 5 7 7 8 9 8 8 8 8 8 6 6 6 5 4 5 4 4 4 4 5 5 4 6 8 6 5 6 7 7 7 7 6 6 11 11 9 9 9 10 12 12 11 9 7 9 9 7 8 4 4 4 5 8 11 9 6 7 9 8 6 6 7 6 5 5 5 7 10 11
10 10 9 8 7 6 6 6 6 7 6 7 7 6 5 6 8 7 7 7 7 9 11 10 10 10 8 7 6 6 6 4 4 4 3 4 3 4 6 5 5 7 6 4 5 7 6 6 5 4 4 5 11 12 9 10 12 13 14 13 12 8 6 7 8 7 8 3 4 5 5 8 11 8 9 12 12 10 7 5 5 5 5 6 7 8 10 11
11 11 10 9 8 7 6 6 6 6 6 6 6 6 7 8 7 7 8 7 8 12 12 11 10 9 8 7 8 8 5 4 5 4 2 3 3 3 3 4 5 6 6 7 7 7 7 5 5 3 2 4 10 14 11 8 10 14 13 12 14 12 9 8 6 6 7 2 5 6 5 7 7 5 7 10 9 9 8 5 4 4 5 6 8 10 11 11
13 13 12 10 9 8 6 6 5 5 5 5 7 8 9 8 6 7 9 8 9 11 10 10 8 6 7 7 8 9 7 4 6 5 3 3 4 3 3 4 5 4 5 7 6 6 9 8 4 5 5 4 7 12 13 10 10 12 12 12 14 13 12 10 8 9 10 6 3 6 7 8 6 5 6 6 6 8 7 6 4 4 5 7 9 11 12 13
15 14 14 12 11 9 7 7 6 5 5 5 7 10 11 9 6 7 9 10 11 10 9 9 8 7 8 7 7 8 8 6 5 5 4 4 5 5 6 7 6 5 5 5 5 6 8 8 7 7 7 7 7 7 10 13 10 9 12 15 14 12 12 10 9 9 10 10 8 9 10 10 9 9 12 12 11 11 9 7 5 4 6 8 9 10 12 14
17 16 16 15 13 11 9 9 8 7 7 6 8 11 11 10 10 10 11 12 12 11 9 9 9 8 7 7 7 6 6 6 5 5 5 4 5 6 7 7 7 6 6 6 5 7 9 9 8 8 8 11 11 9 10 13 11 9 11 13 12 13 13 12 9 7 7 8 9 11 13 14 12 9 12 14 13 12 10 8 6 6 7 10 10 9 11 14
17 18 18 17 15 13 11 10 9 9 8 8 11 12 11 10 11 12 13 13 13 12 10 10 9 9 7 7 7 6 5 6 5 5 6 4 5 7 7 7 7 7 7 6 4 5 8 9 10 10 11 13 13 12 13 14 14 14 13 11 11 12 12 12 10 8 8 7 8 12 15 17 17 11 10 12 12 11 10 8 6 6 7 10 11 9 10 12
16 18 19 19 17 14 12 11 10 10 10 11 11 12 11 11 11 12 13 13 13 11 10 10 9 8 8 8 6 5 6 6 4 5 6 5 5 7 8 8 7 7 7 6 3 4 5 7 9 8 9 11 11 11 13 13 13 16 16 14 14 14 13 13 12 11 11 8 8 12 12 13 16 13 12 13 13 12 9 8 7 6 6 9 11 10 10 10
15 15 18 19 17 15 13 12 11 10 11 12 12 11 11 11 11 12 13 14 14 12 9 9 9 8 9 9 8 6 6 7 6 5 6 6 6 7 9 10 9 9 9 7 6 6 4 6 10 8 7 11 11 12 14 12 10 13 16 17 16 16 16 17 16 17 15 10 8 8 10 13 13 10 11 13 13 13 10 9 9 6 7 10 11 12 12 11
14 13 17 19 17 16 15 13 13 12 12 12 13 13 13 12 12 13 14 14 14 13 12 10 9 8 8 8 8 7 6 7 7 7 7 7 7 7 8 10 10 9 9 7 7 8 6 7 10 11 11 12 10 11 13 14 13 12 14 16 17 17 17 15 14 16 17 15 13 10 10 14 10 7 10 12 13 13 11 10 10 7 8 11 12 13 13 12
14 12 16 18 16 17 15 13 15 15 12 11 12 12 12 12 13 14 15 15 14 14 14 12 11 10 9 9 8 8 8 8 8 8 8 7 8 9 9 9 10 10 9 8 9 12 11 10 12 14 16 15 14 13 15 16 16 15 16 17 16 17 19 17 14 15 16 16 16 15 13 10 6 8 13 13 13 13 11 11 11 10 11 12 12 13 14 14
15 14 17 17 16 18 16 14 16 17 14 14 14 13 12 12 13 14 14 15 14 13 13 13 12 12 11 11 10 9 9 9 9 9 9 9 11 13 12 11 11 11 10 8 9 11 11 9 12 15 15 16 18 20 21 20 17 16 17 18 17 16 18 19 18 16 16 16 15 13 12 10 8 11 13 12 12 11 11 12 13 13 14 14 14 15 16 18
16 16 17 16 17 18 17 15 15 13 15 17 15 13 13 14 14 15 15 15 14 13 13 13 14 13 13 13 11 10 11 10 9 10 10 10 12 13 12 11 11 11 10 9 9 10 9 8 9 12 11 11 13 15 18 22 22 18 15 15 17 16 15 17 18 16 16 20 20 15 13 12 10 11 13 12 12 12 13 14 16 16 17 16 17 18 19 20
15 15 15 16 16 18 18 18 16 13 14 16 13 12 13 14 15 16 16 17 16 14 14 13 14 14 14 14 13 13 14 12 9 9 11 12 13 14 13 12 12 12 13 13 13 13 12 10 10 11 9 8 9 8 9 13 15 14 12 12 15 16 13 14 18 19 17 19 20 19 19 15 8 9 13 13 12 13 15 16 17 18 18 18 19 20 21 21
12 12 14 14 15 17 19 20 19 17 17 16 14 14 14 14 16 16 16 16 17 16 15 15 15 14 14 14 13 12 14 14 12 10 9 10 12 14 13 12 13 14 14 14 14 14 12 12 13 15 15 15 14 13 12 12 11 10 10 11 11 13 13 13 16 20 19 18 20 22 21 19 11 9 13 13 13 15 17 18 20 21 21 21 21 21 20 19
9 11 13 12 12 14 17 20 20 19 19 17 14 15 16 16 17 17 16 17 16 16 15 15 14 13 12 12 12 12 13 13 13 13 11 11 12 14 14 14 14 14 14 15 15 13 12 13 14 16 19 19 19 18 17 17 19 18 16 15 13 14 15 15 18 19 17 17 19 19 18 18 16 13 15 15 15 17 19 20 21 22 23 22 20 20 19 19
7 10 12 12 11 11 13 16 18 18 18 17 16 16 16 15 15 16 16 16 15 14 13 12 13 13 12 12 11 10 11 11 13 14 14 14 14 13 13 14 16 16 14 14 15 13 12 13 14 16 18 19 18 19 18 18 21 21 20 19 17 16 17 18 21 21 19 20 21 18 17 17 14 13 15 16 16 17 18 21 23 23 23 21 20 20 21 21
6 8 9 11 12 13 13 14 14 14 15 15 15 16 15 15 15 15 15 13 13 14 12 12 13 13 13 12 11 9 10 11 11 13 14 14 14 12 10 10 13 14 13 12 13 14 13 13 15 16 18 19 19 20 20 19 20 21 22 23 21 21 20 20 21 21 22 25 25 22 23 23 18 15 16 18 17 18 19 22 23 24 23 23 23 24 24 24
5 6 7 7 9 11 12 13 13 12 13 13 13 14 14 14 14 15 15 14 14 14 13 13 14 14 13 12 11 11 13 13 12 14 14 13 13 12 11 10 9 9 11 12 13 15 14 14 14 15 18 20 19 20 21 21 22 23 24 23 23 22 22 23 24 23 23 26 27 26 31 34 28 21 20 23 23 22 24 25 24 24 26 26 26 26 26 26
6 5 5 5 6 8 9 10 11 9 10 12 13 13 14 14 14 14 14 14 14 14 13 13 13 13 12 12 13 14 14 14 14 14 14 13 13 12 13 14 13 10 9 11 13 14 13 13 14 14 18 21 18 18 21 21 23 27 28 26 25 26 26 27 28 26 27 29 29 29 32 34 28 22 23 28 28 26 27 29 28 27 28 28 27 27 27 27
7 6 5 4 5 7 7 7 8 6 8 11 12 12 13 13 13 13 12 12 13 12 12 12 12 10 9 12 14 14 13 14 14 14 14 14 14 14 14 15 15 14 12 11 14 15 13 13 14 15 19 20 16 14 15 15 17 21 21 22 23 26 28 29 28 28 30 32 30 27 28 28 24 22 23 27 29 29 30 31 31 29 28 28 27 27 27 28
Wind_Direction
275 276 276 275 273 272 273 280 284 291 299 303 306 305 300 297 295 294 290 284 280 278 277 279 278 275 269 265 261 256 251 247 246 245 245 245 242 238 238 237 236 236 234 233 231 230 230 229 231 226 222 222 218 222 228 227 223 220 220 226 234 232 234 227 219 224 216 222 269 320 297 262 276 269 252 238 224 220 222 222 218 211 207 199 191 190 182 183
276 275 274 272 269 267 267 272 279 288 296 302 303 302 298 295 295 295 294 289 284 281 280 282 282 281 275 268 260 254 252 250 250 252 249 244 241 239 237 235 234 234 231 229 227 226 223 222 225 218 216 218 214 216 222 227 221 212 216 229 235 232 234 233 223 215 212 234 268 310 306 274 268 263 242 225 219 219 221 219 215 215 213 204 199 199 193 185
274 273 271 269 266 261 261 264 274 284 292 299 299 300 298 295 297 299 300 297 291 285 283 282 281 281 272 265 258 253 253 251 254 256 251 244 239 236 232 228 229 230 227 224 220 219 216 216 216 211 209 210 215 214 213 223 222 215 218 228 241 239 238 242 231 214 215 227 251 295 302 298 271 238 215 204 208 215 216 214 210 215 217 206 204 204 201 195
275 272 270 266 261 255 254 259 268 278 287 295 297 300 298 297 300 304 308 307 302 290 282 280 277 274 267 266 260 253 254 261 267 261 254 245 236 231 226 222 223 223 221 217 215 214 213 212 208 206 201 203 220 213 209 221 217 222 225 223 243 246 243 248 240 228 226 221 233 291 316 319 283 202 180 187 201 206 205 210 210 215 218 210 210 207 203 206
277 273 268 262 255 249 249 256 264 273 282 289 297 301 300 300 304 311 318 316 311 294 278 268 266 266 269 263 246 243 174 280 274 258 252 244 232 227 220 217 215 209 211 210 210 210 209 207 201 201 193 199 221 209 211 222 212 224 231 226 237 246 246 243 244 240 228 217 240 304 319 308 280 110 149 173 191 202 201 207 208 210 214 213 217 209 201 206
280 274 266 257 250 244 246 254 261 269 278 287 298 302 302 303 310 320 325 329 321 300 281 263 260 257 240 179 162 155 141 148 251 227 230 234 221 220 214 211 202 193 202 204 205 204 204 202 194 194 191 199 213 200 215 226 218 224 239 240 240 244 241 230 241 244 223 215 260 300 304 303 77 54 105 157 186 203 208 207 198 193 190 195 208 207 198 196
285 276 264 253 244 241 245 253 259 263 273 287 299 301 301 304 315 327 335 341 329 315 293 261 244 179 144 134 134 134 154 167 179 184 203 208 199 202 201 197 184 179 191 197 199 196 195 190 184 191 189 200 206 200 220 229 223 218 231 250 247 247 240 228 242 234 215 218 250 280 293 68 79 63 93 137 179 180 191 189 171 167 168 174 184 188 186 185
299 283 264 249 241 241 245 252 254 258 268 282 295 297 299 304 318 332 343 348 342 340 296 225 167 144 120 118 121 112 133 161 146 161 182 180 177 179 183 180 168 171 178 182 187 182 179 174 180 185 180 208 207 204 223 225 232 226 228 250 249 249 249 242 234 214 211 221 220 149 97 92 99 115 101 122 151 132 148 161 154 157 159 165 168 167 172 179
318 294 268 249 243 245 249 251 251 255 262 272 286 293 298 307 321 332 343 345 346 346 256 171 149 133 120 119 111 99 111 130 130 132 137 154 165 166 164 161 157 160 160 164 174 168 164 171 181 177 175 208 202 200 215 205 235 237 228 245 246 252 263 246 216 200 211 213 183 143 100 109 110 106 102 128 136 118 130 150 155 158 158 163 161 160 166 176
333 294 267 254 250 253 254 253 253 255 257 263 274 286 289 296 311 325 341 336 333 334 175 147 140 129 125 120 102 91 124 118 119 113 111 141 158 158 151 148 148 147 150 159 166 159 157 175 184 174 175 200 195 196 201 187 229 235 219 237 242 248 258 224 198 194 207 207 183 161 122 116 113 108 116 147 142 129 127 147 164 163 161 166 164 163 166 176
355 309 269 255 253 258 257 254 254 253 252 253 257 269 272 274 292 317 335 331 330 326 160 143 140 133 131 124 111 126 132 113 113 104 101 132 147 151 147 146 148 145 148 155 157 149 144 155 161 154 163 196 191 195 197 202 222 216 183 226 241 243 242 203 192 193 193 205 189 163 142 128 113 110 140 150 146 148 145 152 167 168 170 173 170 171 171 179
12 356 309 263 255 255 255 253 251 249 250 246 245 252 256 259 271 299 330 340 337 309 154 145 144 140 136 131 128 138 124 109 106 99 101 125 134 142 148 151 154 151 148 143 143 146 139 132 134 139 163 177 165 185 207 214 211 194 175 222 236 221 215 195 190 192 182 196 187 166 169 163 140 140 148 146 148 156 160 159 166 172 179 181 179 179 176 179
13 14 8 329 275 260 257 254 250 246 245 241 239 239 239 247 250 261 302 339 305 222 158 152 149 144 139 140 141 134 120 111 107 104 110 123 130 137 145 152 156 157 150 136 129 139 141 136 130 135 152 150 157 195 206 208 188 188 212 233 223 196 188 191 188 186 181 187 181 175 194 181 164 177 152 144 157 160 168 172 176 180 183 185 186 186 181 181
3 12 16 13 356 312 280 265 254 246 241 236 234 233 232 232 227 241 248 246 222 186 165 157 153 148 145 146 149 140 124 114 112 112 117 125 132 137 145 153 157 157 149 137 131 131 140 147 139 132 147 150 165 182 178 201 189 190 216 213 212 192 165 177 187 178 182 193 180 187 219 194 166 191 172 155 167 167 180 187 194 196 193 193 192 192 187 185
350 3 13 15 15 9 352 324 273 247 240 234 230 230 227 220 216 225 223 190 188 183 171 165 163 157 149 155 159 145 130 123 121 122 123 128 133 139 149 156 160 159 152 148 144 135 134 148 146 137 159 165 160 165 176 203 193 199 214 192 200 199 148 164 184 169 168 190 179 193 228 208 174 205 199 179 176 179 194 198 204 205 200 197 195 194 191 188
341 352 5 13 17 14 10 17 25 259 241 234 229 228 225 218 210 208 213 197 172 179 173 167 169 158 147 162 164 150 142 138 135 137 139 137 138 145 153 159 160 158 154 158 162 155 143 149 158 157 167 168 175 199 209 200 189 199 217 189 191 203 160 162 178 172 170 184 188 203 227 227 192 207 207 187 175 178 195 202 204 203 201 199 196 195 194 191
342 348 354 2 8 9 13 24 43 59 198 229 228 228 228 225 214 204 205 198 175 180 177 170 170 161 156 166 166 162 157 152 149 153 157 153 151 153 158 165 167 165 160 158 170 174 170 167 164 162 166 183 207 214 218 210 194 193 207 192 181 201 191 164 168 186 188 187 193 203 224 239 216 219 227 217 201 188 183 193 196 194 195 198 197 197 198 195
353 349 346 349 350 354 3 13 43 79 140 215 233 231 232 227 219 209 203 204 189 178 181 182 172 158 169 172 165 168 166 167 169 167 171 168 167 167 167 174 180 185 185 187 213 206 208 204 180 194 211 209 207 213 229 223 187 191 200 195 183 193 207 177 161 181 179 185 198 202 223 239 248 243 250 245 222 207 191 188 192 191 194 198 199 201 202 198
11 359 352 349 344 339 336 336 1 176 219 218 251 264 217 216 218 214 205 202 188 173 183 194 179 170 188 180 165 165 165 170 177 179 182 176 178 183 181 191 195 198 207 224 247 243 229 228 211 211 211 205 212 227 247 250 204 206 207 213 204 196 203 194 182 196 189 204 214 213 226 238 254 252 257 257 237 220 203 187 187 190 191 195 200 205 205 201
15 11 6 358 351 344 330 317 314 306 307 341 53 81 73 69 154 226 212 202 194 184 189 194 185 183 190 180 160 153 152 159 173 183 186 181 185 190 192 201 200 206 209 207 234 245 230 229 225 218 216 226 244 253 254 247 229 219 223 228 219 219 217 192 197 223 216 220 220 220 240 246 252 252 250 251 241 230 213 192 187 190 190 193 198 206 208 205
0 4 5 1 1 359 354 348 347 358 27 64 76 83 78 82 107 238 220 203 199 194 191 191 187 186 184 176 161 152 149 155 168 177 183 186 183 188 205 203 198 218 220 216 233 251 245 233 226 226 242 250 257 260 253 242 223 214 224 229 225 228 221 182 195 230 224 231 233 233 250 248 244 247 243 239 232 226 213 197 195 196 195 198 199 205 208 209
342 347 353 354 360 3 8 14 28 56 76 90 85 87 87 80 94 232 204 191 194 192 186 184 186 188 178 168 163 161 154 157 174 176 175 183 174 182 214 209 199 223 233 236 237 248 247 229 230 239 244 251 256 250 235 223 211 213 220 226 230 224 211 197 218 242 237 234 244 254 255 251 242 243 243 231 218 216 209 198 198 201 200 200 198 200 204 208
328 330 336 340 346 351 0 12 30 59 77 91 89 88 82 64 58 142 159 162 178 185 183 180 181 176 165 163 167 166 158 164 186 188 178 180 174 179 198 200 200 219 233 233 221 236 241 210 221 229 213 207 241 237 211 205 207 214 216 220 224 214 216 217 203 217 236 239 252 268 263 257 246 240 242 239 227 212 204 197 199 204 205 203 200 196 198 203
317 315 320 320 320 328 338 353 6 31 58 77 80 79 73 65 71 115 143 141 157 175 176 176 174 166 161 164 166 163 166 177 184 196 188 178 176 181 186 193 203 215 220 215 216 235 242 205 205 197 182 181 195 201 201 209 216 212 212 222 227 215 226 235 192 198 250 258 258 268 267 257 241 233 232 233 233 216 202 202 206 210 212 214 209 203 201 203
311 305 305 302 302 305 308 318 334 349 0 41 64 78 73 64 75 122 134 130 142 160 164 170 170 168 164 160 159 158 163 181 184 194 187 173 176 184 191 194 191 204 210 199 209 228 226 223 201 185 185 187 188 200 206 215 226 220 216 222 229 225 224 237 238 237 250 242 224 248 266 250 218 219 218 211 216 213 206 210 216 219 222 225 222 217 213 211
310 301 292 288 289 289 291 294 301 310 303 314 92 95 79 65 88 131 132 131 146 153 157 171 172 174 170 160 160 149 146 184 194 190 178 175 182 180 189 193 175 193 203 188 208 228 222 219 202 194 199 190 199 218 216 220 234 231 222 218 219 221 219 223 226 236 247 245 211 236 268 253 207 209 199 189 200 209 214 220 225 228 230 232 231 230 227 224
310 302 291 284 280 279 282 281 282 282 272 250 179 141 108 77 112 136 140 147 161 160 165 174 177 180 175 164 156 147 154 180 187 189 177 175 180 166 171 190 187 194 188 188 207 195 189 207 204 202 206 208 219 228 223 222 232 234 217 205 208 209 213 215 220 239 252 268 274 255 256 264 251 226 193 199 220 218 217 224 233 238 237 237 237 235 235 234
306 301 294 287 278 275 272 267 270 264 254 242 218 216 210 222 163 155 163 171 157 161 166 171 178 174 169 165 158 159 175 162 159 199 188 181 184 168 172 197 202 202 215 252 239 150 231 259 241 220 221 226 228 231 225 209 222 239 214 197 202 200 208 214 224 247 250 262 263 234 213 254 256 236 210 218 226 217 208 208 230 241 240 239 239 237 238 239
298 295 292 288 280 274 268 263 260 253 249 237 225 229 224 222 185 172 215 252 157 163 166 163 172 169 165 167 159 160 166 157 160 191 186 184 188 180 188 206 216 237 268 280 287 296 286 266 252 239 231 235 230 221 211 199 216 231 210 193 194 194 205 214 235 250 239 254 262 229 197 253 262 237 218 213 211 204 194 184 205 221 225 228 231 232 235 240
289 290 289 285 283 274 267 262 255 249 245 237 231 229 226 224 202 198 231 207 158 170 176 167 168 168 162 163 158 153 162 167 170 173 175 176 181 191 206 225 248 260 274 283 276 278 277 262 279 276 245 236 227 212 203 197 204 205 192 189 195 201 211 220 237 249 246 254 251 208 199 253 270 243 222 220 217 200 188 181 182 186 191 205 218 227 237 244
283 285 287 286 286 276 270 264 253 248 241 236 237 228 225 227 218 224 226 188 171 176 179 176 177 171 161 162 165 157 162 178 172 162 175 194 202 232 230 242 262 249 250 255 250 265 270 264 282 296 270 236 220 214 214 208 196 189 192 204 211 212 218 228 229 230 247 253 199 179 211 233 251 244 215 223 232 215 207 210 204 202 208 223 230 247 257 255
277 280 283 284 284 277 274 267 252 249 239 229 230 223 220 228 229 233 206 184 185 175 173 176 175 169 161 161 166 155 154 172 176 170 180 189 199 223 230 235 239 241 241 227 232 268 261 251 270 286 280 232 209 209 214 213 207 202 210 222 229 225 222 236 234 226 244 243 145 176 213 226 246 245 217 232 240 228 219 217 218 222 233 246 252 264 268 265
273 275 277 277 278 273 271 268 257 252 241 228 225 216 219 233 233 219 183 177 184 175 177 181 175 172 165 163 172 161 157 176 182 180 186 187 192 223 250 258 242 246 260 256 265 277 248 216 232 269 276 222 203 205 212 216 214 215 220 226 235 242 236 239 244 246 250 230 158 202 223 236 245 234 226 243 248 239 228 219 231 244 253 261 270 278 277 279
267 270 272 273 273 271 266 263 256 250 240 230 222 206 214 232 234 209 184 181 189 184 183 182 176 177 177 184 191 178 176 208 206 199 206 209 207 222 259 278 264 249 261 267 261 268 262 220 170 163 241 227 212 215 222 228 220 219 226 235 242 251 254 252 259 260 260 226 147 179 217 242 241 209 219 242 242 232 230 240 264 267 272 282 295 302 302 306
264 266 269 269 269 268 261 252 250 249 242 230 218 212 220 229 227 206 195 194 193 187 189 189 179 180 188 195 200 190 184 204 216 213 224 225 216 209 220 256 270 242 235 253 241 241 265 264 234 230 242 238 231 227 225 233 237 225 224 236 242 247 249 258 278 279 283 289 196 197 227 242 241 224 225 236 231 230 244 263 261 258 286 304 311 315 318 322
264 264 266 267 266 264 258 250 246 245 244 228 218 224 231 231 219 207 207 206 198 189 196 200 193 199 203 196 202 206 201 203 217 215 221 233 232 238 243 250 258 230 216 242 244 234 248 255 249 247 248 242 245 247 231 232 241 230 227 236 241 247 247 251 265 263 268 277 254 234 237 237 237 237 239 247 245 244 255 260 251 263 303 317 318 315 315 323
263 262 263 264 264 264 259 252 245 243 243 230 224 232 240 240 233 223 216 213 209 203 205 210 209 210 210 198 191 195 205 214 225 223 224 236 244 246 242 239 241 225 212 222 238 247 250 259 254 244 255 254 248 261 258 245 242 236 240 243 238 243 243 241 251 243 236 257 252 235 235 239 242 229 225 237 241 241 246 245 253 285 313 323 320 310 308 318
261 260 261 261 262 264 260 253 246 242 239 234 235 242 247 246 241 232 224 220 216 212 215 223 225 217 213 208 194 185 205 219 223 233 234 232 243 242 227 220 224 221 215 210 223 248 249 261 260 242 250 259 256 263 263 254 247 243 248 249 239 243 239 229 240 249 244 254 252 241 239 243 247 230 201 213 226 230 233 234 252 286 312 322 320 306 302 312
260 258 260 260 260 260 257 252 247 241 237 236 239 247 249 247 244 235 226 223 219 216 221 225 225 222 218 214 208 207 227 236 233 243 243 234 240 240 222 211 212 214 211 198 209 247 239 253 260 244 244 256 256 252 247 248 248 244 246 245 242 251 252 241 242 252 255 260 262 258 252 247 250 240 215 212 216 219 226 234 245 269 305 318 318 304 293 296
259 255 256 257 257 256 252 250 248 241 238 238 235 240 244 245 246 238 228 226 223 220 222 222 223 229 225 224 230 231 237 246 243 245 248 236 237 245 234 226 224 228 235 236 244 252 245 248 256 253 248 253 248 236 238 246 244 239 241 239 237 242 248 251 251 250 255 263 265 264 260 258 258 246 227 219 212 217 229 238 239 256 296 308 310 299 285 278
262 253 252 253 251 250 249 247 246 240 238 243 240 240 242 241 240 237 231 228 227 226 228 226 225 227 224 227 234 231 236 246 242 243 248 239 239 248 242 235 235 238 249 256 250 250 252 247 253 258 255 253 249 233 233 243 247 247 248 244 243 243 243 250 253 246 248 255 260 264 267 269 266 234 221 216 209 217 228 233 235 250 282 294 297 289 278 267
262 250 250 250 246 245 243 239 244 243 240 242 240 240 243 240 235 232 229 228 229 234 236 235 232 229 227 231 235 235 240 244 239 240 244 239 243 249 246 244 248 251 256 256 252 258 265 259 256 259 255 254 260 253 243 246 249 251 254 252 252 251 247 249 257 256 252 254 261 264 264 270 261 209 208 209 209 217 224 228 235 251 268 278 281 276 271 263
259 250 249 248 243 242 236 231 243 247 241 239 242 244 243 238 232 229 228 228 230 234 236 238 239 238 237 240 241 238 240 241 241 244 246 245 249 253 254 255 257 258 261 261 259 263 268 261 256 260 258 256 259 258 254 255 256 254 255 252 250 252 251 251 260 271 269 260 259 260 256 256 237 209 212 221 226 230 234 237 245 258 264 266 264 263 261 256
256 253 252 246 242 242 234 229 239 244 242 246 250 250 244 238 233 229 228 229 231 234 236 239 242 242 243 246 243 237 238 242 249 252 248 244 247 253 254 253 254 255 251 245 247 257 262 259 257 262 264 255 249 248 247 249 250 249 250 246 242 247 254 253 256 264 263 257 255 255 257 258 240 217 226 240 244 247 249 249 252 258 261 259 257 255 252 248
250 251 251 245 241 239 235 233 234 234 242 249 250 246 245 241 237 233 233 236 237 238 239 240 243 244 247 250 249 247 246 246 248 251 247 241 246 253 254 253 253 252 251 251 253 258 260 256 253 256 261 256 248 246 251 251 247 243 245 247 245 249 252 254 256 255 253 255 254 252 256 263 251 215 223 236 246 251 253 254 256 256 255 255 255 251 246 243
247 243 245 243 239 237 237 239 239 238 244 248 245 245 244 242 242 241 240 242 243 243 243 245 247 249 250 250 248 247 248 247 244 243 241 235 242 251 253 254 256 254 255 257 256 258 258 255 253 253 255 260 263 270 281 281 268 257 258 258 255 257 257 258 257 253 255 259 253 250 257 261 252 225 226 237 249 253 254 256 257 256 253 250 248 246 243 242
250 239 237 236 234 233 235 239 239 240 244 242 239 242 242 242 247 248 246 246 248 248 249 250 250 247 246 245 243 242 246 248 244 238 233 230 239 252 255 253 254 256 257 259 259 259 258 257 255 252 253 258 264 270 274 272 267 268 270 266 263 263 262 259 255 254 263 265 256 256 261 255 246 242 242 246 254 258 259 257 255 252 249 246 245 247 251 254
263 248 241 233 228 227 230 235 236 237 241 240 237 241 242 241 242 244 246 249 250 249 250 251 250 248 245 245 244 242 243 243 241 240 239 237 240 248 254 255 256 256 258 262 260 252 250 259 260 256 258 261 261 264 266 264 263 265 266 265 264 261 258 256 255 256 260 260 260 268 269 252 243 253 259 257 254 256 258 257 254 251 247 249 254 259 264 267
278 262 254 243 235 234 235 236 236 237 239 240 240 242 241 239 239 241 244 249 251 252 251 250 254 256 254 252 245 234 232 233 235 239 239 240 242 239 237 251 260 257 251 250 251 247 250 263 262 259 265 267 263 263 264 262 261 261 261 262 263 261 258 256 256 256 255 256 259 266 263 254 250 259 267 263 254 252 255 254 252 252 253 257 264 269 271 271
302 277 266 257 249 245 244 242 241 242 245 245 245 246 244 243 245 246 246 248 251 254 252 249 253 256 254 250 240 231 235 236 236 242 243 241 245 240 230 233 243 247 245 244 250 256 261 268 266 266 272 271 267 264 262 259 261 262 260 258 257 258 258 256 255 255 254 255 258 260 260 261 263 264 262 260 259 261 263 259 253 254 259 265 269 270 269 268
328 311 289 276 266 260 257 253 248 244 248 248 246 248 250 250 251 252 253 252 250 252 251 247 247 249 247 244 240 239 243 243 242 246 246 241 240 239 238 238 238 241 249 252 258 265 269 271 272 273 272 271 270 266 262 263 267 266 261 256 252 252 253 253 255 255 255 257 261 263 264 268 270 263 257 261 264 264 262 259 257 258 262 266 267 266 264 264
344 337 322 308 289 276 272 269 262 246 243 249 247 247 250 252 252 253 254 255 251 247 246 244 241 241 240 242 244 243 245 247 247 247 246 243 242 243 243 245 244 246 252 259 265 270 270 268 271 272 270 271 273 268 265 270 272 268 259 249 245 248 251 254 257 257 258 259 260 261 263 267 266 258 257 265 266 262 258 257 256 257 261 263 262 260 259 260
Height
3108 3108 3108 3107 3107 3107 3107 3106 3106 3106 3105 3105 3105 3104 3103 3103 3102 3101 3101 3100 3100 3099 3099 3099 3099 3099 3098 3098 3098 3099 3099 3099 3099 3099 3099 3100 3101 3101 3102 3103 3104 3105 3106 3107 3108 3110 3111 3112 3113 3115 3116 3117 3118 3119 3119 3120 3121 3123 3125 3126 3126 3126 3127 3126 3126 3126 3126 3126 3127 3126 3125 3125 3125 3124 3125 3126 3127 3129 3130 3132 3133 3134 3135 3135 3136 3136 3137 3138
3106 3106 3106 3106 3106 3106 3106 3105 3105 3105 3105 3104 3104 3103 3103 3102 3101 3101 3100 3099 3099 3099 3098 3098 3098 3098 3098 3097 3097 3097 3097 3098 3098 3098 3099 3099 3100 3100 3101 3102 3102 3103 3105 3106 3107 3108 3110 3111 3112 3114 3115 3116 3117 3118 3118 3119 3120 3122 3124 3125 3125 3125 3125 3123 3124 3123 3124 3125 3125 3125 3124 3123 3124 3123 3123 3125 3126 3127 3128 3130 3132 3133 3133 3134 3135 3136 3137 3137
3105 3105 3105 3104 3104 3104 3104 3104 3104 3104 3104 3104 3103 3102 3102 3101 3101 3100 3099 3099 3098 3098 3098 3097 3097 3097 3097 3097 3096 3097 3097 3097 3097 3097 3098 3098 3099 3099 3100 3100 3101 3102 3104 3105 3106 3107 3109 3110 3111 3113 3114 3116 3116 3116 3118 3118 3119 3121 3122 3123 3124 3123 3122 3122 3122 3122 3122 3123 3123 3123 3123 3123 3123 3122 3122 3123 3125 3125 3127 3129 3131 3131 3132 3133 3134 3135 3136 3137
3103 3103 3103 3103 3103 3103 3103 3103 3103 3103 3103 3103 3102 3102 3101 3101 3100 3099 3099 3098 3098 3097 3097 3097 3097 3096 3096 3096 3096 3096 3096 3097 3097 3097 3097 3097 3098 3098 3099 3100 3100 3101 3103 3104 3105 3106 3107 3108 3110 3111 3113 3115 3115 3115 3117 3117 3118 3119 3119 3122 3122 3120 3120 3121 3121 3121 3121 3121 3122 3122 3122 3123 3122 3121 3121 3122 3124 3125 3127 3129 3130 3131 3131 3132 3134 3135 3136 3137
3102 3102 3102 3102 3102 3102 3102 3102 3103 3103 3103 3102 3102 3101 3101 3100 3099 3099 3098 3097 3097 3097 3097 3096 3096 3096 3096 3096 3096 3096 3096 3097 3097 3096 3096 3096 3097 3097 3098 3099 3100 3101 3102 3103 3104 3105 3107 3108 3109 3110 3112 3115 3114 3115 3116 3115 3116 3117 3117 3119 3119 3119 3120 3121 3120 3120 3120 3120 3121 3121 3122 3122 3121 3120 3120 3122 3124 3126 3127 3127 3128 3130 3131 3132 3134 3135 3135 3136
3101 3101 3100 3101 3101 3101 3101 3102 3102 3102 3102 3102 3101 3101 3100 3100 3099 3098 3098 3097 3097 3096 3096 3096 3096 3096 3096 3095 3095 3096 3097 3098 3097 3096 3096 3096 3096 3097 3097 3098 3099 3100 3101 3102 3103 3104 3106 3107 3109 3110 3112 3114 3114 3115 3115 3113 3114 3116 3117 3117 3117 3117 3118 3119 3119 3119 3120 3120 3121 3121 3121 3121 3120 3121 3120 3121 3123 3124 3125 3125 3127 3129 3130 3132 3133 3134 3135 3135
3100 3100 3100 3100 3100 3100 3101 3101 3101 3101 3101 3101 3101 3100 3100 3099 3098 3098 3097 3097 3096 3096 3096 3096 3096 3096 3095 3095 3095 3096 3096 3097 3096 3096 3096 3096 3096 3096 3097 3098 3099 3100 3101 3102 3103 3104 3105 3107 3109 3110 3112 3113 3113 3114 3113 3113 3114 3115 3117 3116 3116 3116 3116 3117 3118 3119 3120 3120 3120 3120 3121 3120 3120 3121 3120 3121 3122 3122 3123 3125 3127 3128 3129 3131 3132 3133 3134 3135
3099 3099 3099 3099 3099 3100 3100 3100 3100 3101 3100 3100 3100 3100 3099 3098 3098 3098 3097 3097 3096 3096 3096 3096 3096 3096 3095 3095 3096 3096 3097 3096 3096 3096 3095 3095 3095 3096 3097 3097 3098 3099 3100 3102 3103 3104 3105 3107 3109 3109 3112 3112 3111 3112 3112 3113 3114 3113 3115 3115 3115 3115 3116 3117 3117 3118 3119 3120 3120 3120 3120 3120 3120 3121 3121 3121 3122 3122 3123 3125 3126 3128 3129 3130 3131 3132 3133 3134
3099 3099 3099 3099 3099 3099 3099 3100 3100 3100 3100 3100 3099 3099 3099 3098 3098 3097 3097 3097 3096 3096 3095 3095 3096 3096 3096 3096 3096 3097 3097 3096 3096 3096 3095 3095 3095 3096 3096 3097 3098 3099 3101 3102 3103 3104 3105 3107 3108 3108 3111 3111 3110 3112 3111 3113 3114 3112 3114 3114 3114 3115 3116 3116 3117 3118 3119 3119 3120 3120 3121 3120 3120 3120 3121 3122 3122 3122 3123 3125 3127 3128 3129 3130 3131 3132 3133 3134
3099 3098 3098 3098 3098 3098 3099 3099 3099 3099 3099 3099 3099 3098 3098 3098 3097 3097 3097 3096 3096 3096 3095 3096 3096 3096 3096 3096 3096 3097 3097 3096 3096 3095 3095 3095 3095 3096 3096 3097 3098 3099 3101 3102 3102 3103 3105 3106 3107 3107 3109 3109 3110 3111 3111 3112 3112 3111 3112 3113 3113 3115 3115 3115 3116 3117 3118 3119 3119 3120 3121 3120 3120 3120 3122 3122 3122 3123 3124 3125 3126 3128 3129 3130 3131 3132 3133 3134
3098 3098 3098 3098 3098 3098 3098 3098 3098 3098 3098 3098 3098 3098 3097 3097 3097 3097 3096 3096 3096 3096 3095 3096 3096 3096 3096 3096 3096 3097 3096 3096 3096 3095 3096 3096 3096 3096 3097 3098 3098 3099 3101 3102 3103 3103 3104 3105 3106 3108 3109 3110 3110 3111 3111 3111 3111 3111 3112 3112 3113 3114 3114 3115 3115 3116 3118 3118 3119 3120 3121 3120 3120 3121 3122 3122 3122 3123 3124 3125 3127 3128 3129 3130 3131 3131 3132 3134
3098 3098 3097 3097 3097 3097 3097 3097 3097 3097 3097 3097 3097 3097 3097 3096 3096 3096 3096 3096 3096 3096 3096 3096 3096 3096 3096 3096 3096 3096 3096 3096 3096 3096 3096 3096 3097 3097 3097 3098 3099 3099 3101 3102 3103 3104 3105 3106 3106 3108 3109 3110 3111 3111 3110 3110 3110 3111 3112 3112 3114 3114 3114 3114 3115 3116 3117 3118 3118 3119 3120 3121 3121 3121 3121 3121 3122 3123 3124 3125 3126 3128 3129 3130 3131 3131 3132 3133
3098 3098 3097 3097 3096 3096 3096 3096 3097 3096 3096 3096 3096 3096 3096 3096 3096 3096 3096 3096 3096 3096 3096 3096 3096 3096 3096 3096 3096 3096 3096 3096 3096 3096 3097 3097 3097 3098 3098 3099 3100 3100 3101 3102 3104 3105 3105 3106 3107 3107 3108 3109 3111 3110 3110 3110 3110 3111 3112 3112 3113 3114 3114 3114 3114 3116 3117 3117 3117 3119 3119 3119 3121 3120 3120 3121 3121 3123 3124 3125 3126 3127 3128 3129 3130 3131 3132 3133
3098 3098 3097 3096 3096 3096 3096 3095 3095 3095 3095 3095 3096 3096 3096 3096 3096 3096 3096 3096 3096 3096 3096 3096 3096 3096 3096 3097 3097 3096 3096 3096 3096 3097 3097 3098 3098 3099 3099 3100 3101 3101 3102 3103 3104 3105 3106 3106 3107 3107 3108 3109 3110 3109 3110 3111 3111 3112 3112 3112 3112 3112 3112 3113 3114 3115 3116 3116 3117 3118 3117 3117 3120 3120 3120 3120 3121 3122 3123 3124 3126 3127 3127 3128 3129 3130 3131 3132
3098 3097 3097 3096 3096 3095 3095 3095 3095 3094 3094 3094 3095 3095 3095 3095 3095 3096 3096 3096 3096 3096 3096 3096 3096 3096 3097 3097 3097 3097 3097 3097 3097 3097 3098 3098 3099 3100 3100 3101 3101 3102 3103 3103 3104 3105 3106 3107 3107 3108 3109 3109 3109 3110 3111 3111 3111 3112 3111 3110 3111 3110 3110 3112 3113 3114 3115 3115 3116 3118 3117 3116 3119 3119 3119 3120 3120 3121 3122 3123 3124 3125 3126 3127 3128 3129 3130 3131
3098 3097 3096 3096 3095 3095 3095 3094 3094 3094 3093 3093 3094 3094 3094 3094 3095 3095 3095 3095 3095 3096 3096 3096 3096 3097 3097 3098 3097 3097 3097 3097 3097 3098 3098 3099 3099 3100 3101 3101 3102 3103 3103 3104 3105 3106 3106 3107 3107 3108 3108 3109 3110 3110 3110 3110 3110 3111 3110 3109 3110 3110 3110 3112 3113 3113 3114 3115 3117 3117 3116 3116 3118 3118 3118 3119 3120 3121 3121 3122 3123 3124 3125 3126 3127 3128 3129 3130
3097 3097 3096 3095 3095 3095 3094 3094 3094 3093 3093 3093 3093 3093 3093 3093 3094 3095 3095 3095 3095 3096 3096 3096 3097 3097 3097 3097 3097 3098 3098 3098 3098 3098 3099 3099 3100 3101 3101 3102 3103 3103 3104 3105 3105 3106 3106 3107 3107 3108 3108 3109 3109 3110 3109 3108 3108 3109 3109 3110 3110 3111 3110 3110 3112 3113 3114 3115 3116 3116 3117 3117 3117 3117 3118 3118 3119 3120 3121 3121 3122 3123 3124 3125 3126 3127 3128 3129
3097 3096 3096 3095 3095 3094 3094 3093 3093 3093 3092 3092 3092 3092 3092 3092 3093 3094 3094 3095 3095 3096 3096 3097 3097 3097 3098 3097 3097 3098 3098 3098 3098 3099 3099 3100 3100 3101 3102 3102 3103 3104 3104 3105 3105 3106 3106 3106 3107 3108 3108 3108 3109 3109 3108 3106 3107 3108 3109 3109 3110 3111 3110 3110 3111 3112 3113 3115 3115 3116 3116 3116 3117 3116 3117 3117 3118 3119 3120 3120 3121 3121 3122 3123 3125 3126 3127 3128
3097 3096 3095 3095 3094 3094 3094 3093 3093 3092 3092 3091 3091 3092 3092 3091 3092 3092 3093 3094 3094 3095 3096 3096 3096 3097 3097 3097 3097 3097 3098 3098 3098 3099 3099 3100 3101 3101 3102 3103 3103 3104 3105 3106 3105 3105 3106 3107 3107 3108 3108 3108 3107 3108 3107 3106 3107 3108 3109 3109 3109 3110 3110 3111 3111 3111 3112 3114 3114 3115 3115 3115 3116 3115 3115 3116 3117 3118 3118 3119 3120 3120 3121 3122 3123 3124 3126 3127
3097 3096 3095 3095 3094 3094 3093 3093 3092 3092 3091 3091 3091 3091 3091 3091 3091 3091 3091 3092 3093 3094 3094 3095 3095 3096 3096 3097 3097 3097 3098 3098 3098 3099 3099 3100 3101 3101 3102 3103 3103 3104 3105 3106 3105 3105 3106 3107 3107 3107 3106 3106 3106 3106 3106 3106 3107 3108 3109 3109 3109 3109 3109 3110 3110 3110 3111 3113 3113 3114 3114 3114 3115 3114 3114 3114 3115 3116 3117 3117 3118 3119 3120 3121 3122 3123 3124 3125
3097 3096 3095 3095 3094 3093 3093 3092 3092 3092 3091 3091 3091 3091 3091 3091 3091 3091 3090 3091 3092 3092 3093 3094 3094 3095 3096 3096 3097 3097 3098 3098 3099 3099 3099 3100 3101 3102 3102 3103 3104 3104 3104 3104 3104 3104 3105 3106 3106 3105 3105 3104 3105 3105 3105 3106 3106 3107 3109 3109 3109 3109 3109 3109 3110 3110 3111 3112 3112 3112 3113 3113 3113 3113 3113 3113 3113 3114 3115 3116 3117 3118 3119 3119 3120 3121 3122 3124
3096 3096 3095 3095 3094 3093 3093 3092 3092 3091 3091 3091 3091 3091 3091 3090 3090 3089 3089 3089 3090 3092 3092 3093 3094 3095 3095 3096 3097 3097 3098 3098 3099 3099 3099 3100 3100 3102 3103 3103 3104 3104 3103 3103 3104 3104 3104 3105 3104 3103 3104 3104 3104 3104 3105 3105 3106 3107 3108 3108 3108 3108 3108 3108 3109 3109 3110 3111 3111 3111 3112 3112 3112 3112 3111 3111 3112 3112 3113 3114 3115 3116 3117 3118 3119 3119 3120 3121
3096 3095 3095 3094 3094 3093 3093 3092 3092 3091 3091 3091 3091 3091 3090 3090 3089 3089 3088 3089 3090 3091 3092 3092 3093 3094 3095 3096 3096 3097 3098 3099 3099 3099 3099 3099 3100 3101 3102 3103 3104 3103 3102 3102 3103 3104 3104 3103 3102 3103 3103 3103 3104 3104 3104 3105 3106 3106 3107 3107 3107 3106 3107 3107 3107 3108 3109 3110 3110 3110 3110 3110 3110 3110 3110 3110 3110 3111 3111 3112 3113 3114 3115 3116 3117 3117 3118 3119
3095 3095 3094 3094 3094 3093 3093 3092 3092 3092 3091 3091 3091 3090 3090 3090 3089 3089 3088 3089 3090 3091 3091 3092 3093 3094 3095 3095 3096 3096 3097 3098 3099 3099 3098 3099 3100 3101 3101 3102 3102 3102 3102 3102 3102 3103 3103 3101 3102 3102 3103 3103 3104 3103 3104 3105 3105 3105 3106 3106 3106 3106 3106 3106 3107 3108 3108 3108 3108 3109 3108 3106 3106 3107 3108 3108 3108 3109 3110 3110 3111 3112 3113 3114 3115 3116 3117 3117
3094 3094 3094 3093 3093 3093 3092 3092 3092 3092 3091 3091 3091 3090 3090 3090 3089 3089 3089 3089 3091 3091 3091 3092 3093 3094 3094 3095 3095 3096 3097 3097 3097 3098 3097 3098 3099 3100 3101 3101 3101 3102 3102 3101 3102 3102 3102 3101 3101 3102 3102 3103 3103 3103 3104 3104 3104 3104 3104 3104 3105 3106 3106 3106 3107 3107 3107 3106 3106 3108 3106 3102 3103 3106 3106 3106 3107 3108 3108 3109 3110 3111 3111 3112 3113 3114 3115 3116
3094 3093 3093 3092 3092 3092 3092 3092 3091 3091 3091 3091 3090 3090 3090 3090 3089 3089 3089 3090 3091 3091 3092 3092 3093 3093 3094 3094 3095 3095 3096 3097 3096 3096 3097 3097 3098 3099 3100 3100 3100 3101 3100 3100 3101 3101 3100 3100 3101 3101 3102 3102 3103 3103 3103 3103 3103 3102 3101 3103 3104 3105 3105 3106 3106 3106 3105 3103 3104 3106 3104 3100 3101 3104 3104 3105 3106 3107 3107 3107 3108 3109 3110 3111 3111 3112 3113 3114
3093 3092 3092 3092 3091 3091 3091 3091 3091 3091 3090 3090 3090 3090 3090 3090 3089 3089 3089 3090 3090 3091 3091 3092 3092 3092 3093 3094 3094 3095 3096 3096 3096 3096 3096 3097 3097 3098 3099 3100 3100 3100 3099 3099 3099 3099 3099 3100 3100 3100 3101 3102 3102 3102 3101 3102 3102 3100 3100 3102 3103 3104 3105 3105 3105 3105 3103 3103 3103 3104 3105 3102 3100 3101 3102 3103 3105 3106 3106 3106 3106 3107 3108 3109 3109 3110 3111 3112
3092 3092 3091 3091 3091 3090 3090 3090 3090 3090 3090 3089 3090 3090 3089 3090 3089 3089 3089 3089 3089 3089 3090 3091 3091 3091 3092 3093 3093 3094 3094 3095 3096 3096 3096 3096 3097 3097 3098 3099 3100 3099 3099 3098 3098 3098 3099 3099 3099 3100 3100 3101 3101 3100 3100 3100 3101 3100 3100 3101 3102 3103 3103 3104 3104 3103 3103 3104 3102 3101 3103 3102 3098 3099 3101 3102 3103 3103 3104 3105 3104 3104 3105 3106 3107 3108 3108 3109
3091 3091 3090 3090 3090 3090 3089 3089 3089 3089 3089 3089 3089 3089 3089 3090 3089 3089 3089 3088 3088 3089 3090 3090 3091 3091 3092 3092 3093 3093 3094 3094 3095 3095 3095 3096 3096 3097 3098 3098 3098 3098 3098 3097 3098 3098 3098 3098 3098 3098 3099 3099 3099 3098 3099 3099 3099 3099 3100 3100 3101 3101 3102 3102 3102 3102 3102 3102 3099 3098 3101 3100 3095 3097 3099 3100 3100 3101 3103 3103 3103 3102 3103 3104 3104 3105 3106 3106
3090 3090 3089 3089 3089 3089 3089 3088 3088 3088 3088 3088 3088 3089 3089 3089 3089 3089 3089 3088 3088 3089 3089 3090 3090 3091 3091 3092 3093 3093 3093 3094 3094 3094 3094 3095 3095 3096 3096 3097 3097 3097 3097 3097 3097 3097 3097 3096 3096 3096 3097 3097 3097 3097 3097 3098 3098 3098 3099 3100 3100 3100 3101 3101 3101 3101 3100 3098 3096 3096 3100 3100 3096 3094 3097 3098 3098 3100 3101 3101 3101 3101 3102 3102 3103 3103 3104 3104
3089 3089 3088 3088 3088 3088 3088 3087 3087 3087 3087 3087 3088 3088 3088 3088 3088 3087 3086 3087 3087 3088 3089 3089 3090 3090 3091 3092 3092 3092 3093 3093 3093 3094 3094 3095 3095 3095 3096 3096 3096 3096 3096 3096 3096 3096 3096 3095 3095 3095 3095 3094 3095 3096 3096 3097 3097 3097 3098 3099 3099 3099 3099 3099 3098 3099 3098 3094 3093 3095 3098 3100 3097 3093 3095 3097 3097 3098 3099 3100 3100 3100 3100 3101 3101 3101 3101 3101
3088 3087 3087 3087 3087 3087 3087 3086 3086 3086 3086 3086 3087 3087 3088 3088 3087 3086 3085 3085 3087 3087 3088 3089 3089 3089 3090 3091 3091 3091 3092 3092 3092 3093 3094 3094 3095 3095 3095 3095 3096 3095 3094 3094 3094 3094 3094 3094 3094 3093 3093 3093 3094 3095 3096 3096 3096 3096 3097 3098 3096 3095 3097 3096 3093 3093 3092 3090 3092 3095 3097 3098 3095 3092 3094 3095 3096 3097 3098 3098 3099 3099 3099 3099 3099 3099 3098 3098
3086 3086 3086 3086 3085 3085 3085 3085 3085 3085 3085 3086 3086 3086 3087 3087 3085 3084 3084 3085 3085 3086 3086 3087 3088 3088 3089 3090 3090 3090 3091 3091 3091 3092 3092 3093 3094 3094 3093 3093 3094 3094 3093 3093 3094 3093 3092 3092 3092 3092 3092 3092 3093 3094 3094 3094 3095 3095 3095 3096 3094 3092 3093 3093 3089 3087 3087 3088 3092 3094 3096 3094 3092 3091 3093 3093 3094 3096 3096 3097 3097 3097 3097 3097 3097 3097 3096 3096
3085 3084 3084 3084 3084 3084 3084 3084 3084 3084 3084 3085 3085 3086 3087 3086 3083 3083 3084 3084 3084 3084 3085 3086 3087 3088 3088 3089 3089 3089 3090 3090 3090 3091 3092 3092 3093 3093 3092 3092 3093 3093 3093 3093 3093 3092 3090 3089 3090 3091 3091 3091 3091 3092 3092 3093 3093 3093 3093 3094 3093 3091 3091 3090 3087 3086 3085 3088 3091 3093 3094 3091 3089 3090 3091 3092 3093 3094 3095 3096 3096 3096 3096 3095 3095 3095 3094 3094
3083 3083 3083 3083 3083 3083 3083 3083 3083 3083 3083 3083 3084 3085 3085 3083 3082 3083 3083 3083 3083 3084 3085 3085 3086 3088 3088 3088 3088 3088 3089 3089 3089 3090 3091 3091 3092 3092 3092 3091 3091 3092 3093 3092 3092 3092 3091 3089 3089 3090 3090 3090 3091 3090 3091 3092 3092 3092 3092 3092 3091 3091 3091 3090 3088 3088 3088 3088 3089 3091 3090 3089 3088 3089 3090 3091 3092 3093 3093 3094 3094 3094 3094 3094 3094 3093 3093 3092
3081 3081 3081 3081 3081 3081 3081 3081 3082 3082 3082 3082 3083 3083 3082 3081 3081 3082 3082 3082 3083 3084 3084 3085 3086 3087 3087 3087 3087 3087 3088 3088 3089 3090 3090 3090 3090 3090 3090 3089 3090 3090 3091 3091 3091 3091 3090 3088 3088 3089 3089 3089 3090 3090 3090 3091 3090 3090 3090 3090 3089 3089 3090 3089 3089 3089 3091 3089 3086 3086 3087 3087 3088 3088 3088 3090 3090 3091 3092 3092 3092 3093 3093 3093 3092 3092 3091 3091
3079 3079 3079 3079 3079 3079 3080 3080 3080 3081 3081 3081 3082 3081 3080 3079 3080 3080 3080 3081 3081 3082 3084 3084 3084 3085 3085 3086 3086 3086 3087 3087 3088 3088 3088 3088 3088 3088 3088 3088 3088 3089 3089 3090 3090 3090 3089 3088 3087 3088 3088 3088 3088 3089 3088 3089 3089 3089 3089 3088 3088 3088 3089 3089 3088 3087 3088 3086 3082 3083 3085 3085 3085 3085 3085 3087 3089 3089 3090 3090 3091 3091 3091 3092 3091 3091 3091 3090
3077 3077 3077 3076 3077 3077 3078 3078 3078 3079 3079 3080 3080 3079 3078 3078 3078 3078 3079 3079 3080 3081 3082 3083 3083 3084 3084 3085 3085 3085 3086 3086 3087 3087 3087 3087 3087 3087 3087 3087 3087 3087 3088 3088 3089 3089 3088 3088 3086 3086 3087 3086 3086 3087 3087 3086 3087 3087 3087 3087 3087 3087 3086 3087 3086 3084 3084 3082 3079 3080 3081 3081 3081 3081 3083 3085 3086 3087 3088 3089 3089 3090 3090 3090 3090 3090 3090 3089
3075 3075 3074 3074 3075 3075 3076 3076 3076 3077 3078 3078 3078 3077 3076 3076 3076 3076 3077 3078 3079 3080 3081 3082 3081 3082 3083 3083 3084 3084 3084 3085 3086 3086 3086 3086 3086 3085 3086 3086 3086 3086 3086 3087 3088 3087 3088 3087 3085 3084 3085 3085 3085 3086 3085 3084 3085 3085 3085 3085 3086 3085 3084 3084 3084 3083 3082 3080 3078 3077 3077 3077 3078 3079 3081 3083 3085 3086 3086 3087 3088 3088 3089 3089 3089 3089 3089 3089
3072 3073 3072 3071 3072 3073 3073 3074 3074 3075 3076 3076 3076 3075 3074 3074 3075 3075 3076 3076 3077 3078 3079 3080 3080 3081 3081 3082 3082 3083 3083 3083 3084 3085 3084 3084 3084 3084 3084 3085 3085 3085 3085 3086 3086 3086 3087 3087 3085 3083 3084 3084 3083 3083 3083 3082 3082 3083 3083 3083 3083 3083 3083 3082 3081 3081 3081 3079 3078 3077 3075 3074 3076 3078 3080 3082 3083 3084 3085 3085 3086 3087 3087 3087 3088 3088 3088 3088
3070 3070 3069 3069 3070 3070 3071 3072 3072 3073 3074 3073 3073 3073 3073 3073 3073 3073 3074 3075 3076 3076 3077 3078 3079 3079 3080 3080 3081 3081 3081 3082 3083 3083 3083 3083 3083 3083 3083 3083 3083 3084 3084 3085 3085 3085 3085 3086 3084 3083 3082 3082 3081 3080 3080 3081 3080 3081 3081 3081 3081 3080 3081 3080 3077 3077 3080 3077 3076 3076 3073 3072 3074 3076 3079 3081 3082 3082 3083 3084 3084 3085 3086 3086 3086 3087 3087 3087
3067 3068 3067 3067 3068 3068 3069 3070 3070 3070 3071 3071 3071 3071 3071 3071 3072 3072 3073 3073 3074 3074 3075 3076 3076 3077 3078 3078 3079 3079 3080 3081 3081 3081 3081 3081 3081 3081 3081 3081 3082 3082 3083 3084 3083 3083 3083 3084 3083 3082 3081 3080 3079 3077 3078 3079 3079 3079 3079 3079 3079 3079 3079 3079 3075 3074 3077 3075 3075 3075 3072 3071 3073 3075 3076 3079 3080 3080 3081 3082 3083 3084 3084 3085 3085 3085 3086 3086
3064 3064 3064 3065 3065 3066 3067 3068 3068 3068 3068 3069 3068 3069 3069 3069 3070 3071 3071 3072 3072 3073 3073 3074 3074 3075 3075 3076 3077 3078 3078 3079 3079 3079 3079 3079 3079 3079 3079 3080 3080 3081 3081 3082 3081 3080 3081 3081 3081 3079 3078 3078 3077 3076 3077 3077 3077 3078 3077 3077 3077 3077 3077 3076 3074 3074 3074 3073 3074 3074 3071 3070 3073 3074 3075 3077 3078 3079 3079 3080 3081 3082 3083 3083 3084 3084 3084 3084
3061 3061 3061 3062 3063 3063 3065 3066 3066 3066 3066 3066 3066 3067 3067 3068 3068 3069 3069 3070 3070 3071 3071 3072 3072 3073 3073 3074 3075 3076 3076 3076 3076 3076 3077 3077 3076 3076 3077 3078 3078 3079 3079 3079 3079 3079 3079 3080 3079 3078 3076 3075 3074 3074 3074 3074 3074 3075 3075 3075 3074 3075 3075 3074 3074 3075 3073 3071 3073 3072 3067 3068 3071 3072 3075 3076 3076 3077 3078 3078 3079 3080 3081 3081 3082 3082 3083 3083
3058 3059 3059 3060 3060 3061 3062 3062 3063 3064 3064 3064 3065 3065 3065 3066 3066 3066 3067 3067 3068 3069 3069 3070 3070 3070 3071 3071 3072 3073 3073 3074 3075 3074 3074 3075 3074 3074 3075 3075 3076 3076 3076 3077 3077 3077 3078 3078 3078 3076 3074 3072 3072 3071 3070 3070 3071 3073 3073 3072 3072 3073 3073 3073 3073 3073 3070 3069 3071 3069 3066 3068 3070 3071 3073 3074 3075 3075 3076 3076 3077 3078 3078 3079 3080 3080 3081 3081
3056 3057 3056 3057 3058 3058 3059 3059 3060 3061 3061 3062 3063 3063 3063 3064 3063 3064 3065 3065 3066 3066 3067 3067 3068 3068 3069 3069 3070 3071 3071 3071 3072 3072 3073 3073 3073 3072 3073 3073 3074 3074 3074 3074 3075 3075 3076 3076 3075 3075 3073 3071 3070 3070 3069 3069 3070 3071 3071 3071 3071 3071 3071 3072 3072 3069 3068 3068 3068 3066 3066 3067 3068 3069 3071 3072 3073 3073 3073 3074 3074 3075 3075 3076 3077 3077 3078 3078
3054 3054 3054 3055 3056 3056 3056 3056 3057 3058 3059 3060 3061 3060 3061 3062 3062 3062 3063 3063 3063 3064 3065 3065 3066 3066 3067 3067 3068 3068 3068 3069 3069 3070 3071 3071 3071 3070 3071 3071 3071 3072 3072 3072 3073 3073 3074 3073 3072 3072 3071 3070 3070 3070 3069 3069 3068 3069 3069 3069 3070 3070 3069 3070 3069 3067 3068 3066 3063 3063 3065 3066 3066 3068 3069 3070 3071 3071 3071 3072 3072 3072 3072 3073 3074 3074 3075 3076
3051 3051 3052 3053 3053 3054 3054 3054 3055 3056 3056 3057 3058 3058 3059 3060 3060 3060 3060 3061 3061 3062 3063 3063 3063 3064 3065 3065 3066 3066 3066 3067 3067 3067 3068 3069 3069 3069 3069 3069 3069 3069 3070 3070 3070 3071 3071 3070 3070 3070 3069 3068 3069 3068 3068 3068 3067 3067 3067 3066 3067 3067 3067 3067 3066 3066 3067 3064 3061 3062 3064 3063 3064 3066 3068 3068 3068 3069 3069 3069 3069 3069 3069 3070 3071 3071 3072 3072
3049 3050 3050 3050 3051 3051 3052 3052 3053 3054 3054 3055 3055 3056 3057 3057 3057 3058 3058 3059 3059 3060 3061 3061 3061 3062 3062 3063 3064 3065 3064 3065 3065 3065 3065 3066 3067 3067 3068 3068 3067 3067 3068 3068 3068 3068 3069 3068 3067 3068 3067 3065 3066 3066 3066 3065 3065 3064 3064 3064 3064 3064 3064 3063 3063 3063 3064 3061 3060 3062 3061 3059 3062 3064 3065 3066 3065 3066 3067 3066 3067 3067 3067 3067 3068 3068 3068 3069
3048 3048 3048 3049 3049 3049 3050 3050 3051 3052 3053 3053 3053 3054 3054 3055 3055 3056 3056 3057 3057 3058 3059 3059 3059 3059 3060 3060 3061 3062 3062 3062 3062 3062 3063 3064 3065 3065 3067 3066 3066 3066 3066 3066 3066 3065 3066 3066 3065 3066 3065 3062 3062 3063 3063 3063 3062 3060 3060 3061 3061 3061 3060 3060 3059 3060 3060 3058 3058 3059 3056 3055 3058 3061 3062 3062 3062 3063 3063 3063 3064 3064 3064 3065 3065 3065 3065 3065
3047 3047 3047 3047 3047 3048 3048 3049 3049 3051 3051 3051 3051 3052 3052 3052 3053 3053 3054 3055 3055 3055 3056 3057 3057 3057 3058 3058 3059 3059 3059 3059 3060 3060 3061 3062 3063 3063 3064 3064 3064 3064 3064 3064 3064 3063 3065 3064 3064 3064 3062 3058 3060 3060 3059 3059 3058 3056 3055 3056 3056 3057 3056 3056 3056 3056 3056 3055 3056 3056 3053 3052 3054 3057 3057 3058 3059 3060 3060 3059 3059 3060 3061 3061 3062 3061 3061 3061
3047 3046 3046 3046 3046 3046 3047 3047 3048 3049 3049 3049 3049 3050 3050 3050 3051 3051 3052 3052 3052 3053 3054 3054 3055 3056 3057 3056 3056 3057 3057 3057 3058 3058 3059 3060 3060 3060 3061 3061 3061 3062 3062 3062 3062 3062 3063 3062 3062 3062 3059 3056 3057 3058 3057 3057 3054 3050 3049 3050 3051 3053 3052 3052 3053 3053 3052 3053 3053 3052 3051 3050 3050 3052 3053 3054 3055 3055 3055 3055 3055 3056 3057 3058 3058 3058 3058 3058